sat.trackr.live / text

‹ back to catalog

QIANFAN-75

NORAD 63161 · 2025-046C

PAYLOAD ACTIVE UNKNOWN

§ Identity

Operator
Country
PRC
Launch date
2025-03-11
Launch site
WSC
Launch vehicle
Mass (kg)
RCS (m²)

External: N2YO · Heavens-Above · Gunter

§ Orbital elements

Epoch: 2026-09-22T21:41:56.390496Z

Period
106.59 min
Inclination
88.9642°
Eccentricity
0.0016988
Mean motion
13.51031425 rev/d
Perigee alt
1,055.8 km
Apogee alt
1,081.1 km
Semi-major
7,446.6 km
B*
1.1819e-4
RAAN
290.6416°
Arg perigee
32.6545°
Mean anomaly
327.5653°
Rev number
8,571

§ Raw data

QIANFAN-751 63161U 25046C   26265.90412489  .00000089  00000+0  11819-3 0  99912 63161  88.9642 290.6416 0016988  32.6545 327.5653 13.51031425 85718

JSON: /api/v1/satellites/63161 · /tle

For live sub-satellite position, see the globe view (requires WebGL).

§ Visibility from observer

Set your observer location to see the next 7 days of passes ≥ 10°. The values pass through the URL so the page stays shareable.

No JS? Fill the form by hand. The geolocation button needs JavaScript.